Regional Weather Roundup
Issued by NWS

Home | Current Version | Previous Version | Text Only | Print | Product List | Glossary On
Versions: 1 2 3 4 5 6 7 8 9 10 11 12 13 14 15 16 17 18 19 20 21 22 23 24 25 26 27 28 29 30 31 32 33 34 35 36 37 38 39 40 41 42 43 44 45 46 47 48 49 50
000
ASUS43 KMKX 240721
RWRWI

WISCONSIN REGIONAL WEATHER ROUNDUP
NATIONAL WEATHER SERVICE MILWAUKEE/SULLIVAN WI
200 AM CDT FRI OCT 24 2014

NOTE: "FAIR" INDICATES FEW OR NO CLOUDS BELOW 12,000 FEET WITH NO
SIGNIFICANT WEATHER AND/OR OBSTRUCTIONS TO VISIBILITY.

WIZ001-002-006>008-014>016-023>028-240800-
NORTHWEST WISCONSIN

CITY           SKY/WX    TMP DP  RH WIND       PRES   REMARKS
SUPERIOR ARPT  FOG       37  37 100 CALM      29.93F VSB 1/4
ASHLAND        PTCLDY    47  47 100 S7        29.96S FOG
HAYWARD        CLOUDY    49  48  97 S8        29.98S FOG
SIREN          MOCLDY    49  48  97 SE7       29.96S FOG
CUMBERLAND     CLOUDY    48  46  93 S6        29.99S FOG
RICE LAKE      FOG       50  48  95 S6        30.01S VSB 1
CHETEK         CLOUDY    49  49 100 CALM      30.01R FOG
LADYSMITH      CLOUDY    49  48  97 S7        30.02S FOG
EAU CLAIRE     FOG       49  48  97 S6        30.01S VSB 1
MENOMONIE      FOG       52  50  93 SE6       30.01S VSB 3/4
NEW RICHMOND   FOG       49  49 100 SE6       29.99S VSB 1
OSCEOLA        CLOUDY    49  49 100 SE6       29.99F FOG
$$

WIZ003>005-009-010-017-018-240800-
NORTH CENTRAL WISCONSIN

CITY           SKY/WX    TMP DP  RH WIND       PRES   REMARKS
MANITOWISH WTR FOG       45  45 100 SW5       29.99S VSB 1/2
ARBOR VITAE    FOG       46  45  97 SW3       30.00R VSB 1/2
WOODRUFF       FOG       46  45  97 SW3       30.00R VSB 1/2
RHINELANDER    FOG       44  44 100 SW6       30.00S VSB 1/2
EAGLE RIVER    FOG       44  44 100 SW6       29.99S VSB 3/4
LAND O LAKES   FOG       44  44 100 SW3       30.00R VSB 3/4
PHILLIPS       FOG       46  46 100 SW5       30.00R VSB 1/2
TOMAHAWK       CLOUDY    44  44  97 CALM      30.01S FOG
MEDFORD        FOG       44  44 100 SW5       30.02R VSB 1/4
MERRILL        CLOUDY    45  45 100 NW3       30.01S FOG
$$

WIZ029-030-035-036-043>047-240800-
CENTRAL WISCONSIN

CITY           SKY/WX    TMP DP  RH WIND       PRES   REMARKS
WAUSAU         FOG       46  46 100 SW3       30.01R VSB 1
MOSINEE        FOG       45  45 100 CALM      30.03R VSB 1/4
MARSHFIELD     FOG       47  46  97 W6        30.01S VSB 3/4
STEVENS POINT  CLOUDY    45  45  99 CALM      30.03R FOG
WAUPACA        CLOUDY    48  47  96 CALM      30.03S FOG
WAUTOMA        CLOUDY    47  47 100 CALM      30.04R FOG
WISC RAPIDS    FOG       47  46  97 CALM      30.04R VSB 1
CAMP DOUGLAS   CLOUDY    48  48 100 SW5       30.03S FOG
$$

WIZ011>013-019>022-031-037>040-048>050-240800-
NORTHEAST WISCONSIN

CITY           SKY/WX    TMP DP  RH WIND       PRES   REMARKS
ANTIGO         FOG       44  44 100 W6        30.01S VSB 1
SHAWANO        CLOUDY    48  46  93 CALM      30.03R FOG
OCONTO         CLOUDY    47  47 100 CALM      30.01S
STURGEON BAY   CLOUDY    48  46  93 W6        30.02S
GREEN BAY      CLOUDY    48  47  96 W5        30.02S FOG
MANITOWOC      CLOUDY    50  49  96 W5        30.03R FOG
APPLETON       CLOUDY    46  45  93 W5        30.03S FOG
CLINTONVILLE   CLOUDY    46  45  93 CALM      30.02S FOG
OSHKOSH        CLOUDY    48  47  96 W3        30.02R FOG
$$

WIZ032>034-041-042-053>061-240800-
SOUTHWEST WISCONSIN

CITY           SKY/WX    TMP DP  RH WIND       PRES   REMARKS
LA CROSSE      CLOUDY    51  50  96 S5        30.04R FOG
SPARTA         CLOUDY    47  47  99 CALM      30.05S FOG
VIROQUA        CLOUDY    47  47 100 SW7       30.04R VSB 1/4
BOSCOBEL       CLOUDY    50  49  96 SW5       30.06R FOG
PRAIRIE DU CHI CLOUDY    50  49  95 CALM      30.04S FOG
PLATTEVILLE    CLOUDY    50  49  97 SW6       30.05S
$$

WIZ056-057-062-063-064-067-068-240800-
SOUTH CENTRAL WISCONSIN

CITY           SKY/WX    TMP DP  RH WIND       PRES   REMARKS
REEDSBURG      CLOUDY    47  47  99 SW3       30.03S FOG
BARABOO/DELLS  FOG       47  46  95 CALM      30.03S VSB 3/4
LONE ROCK      CLOUDY    52  48  86 W6        30.04S FOG
MINERAL POINT  FOG       50  48  93 W5        30.04S VSB 1/4
MADISON        CLOUDY    50  48  93 VRB5      30.04R FOG
MIDDLETON      CLOUDY    51  50  97 CALM      30.04F
WATERTOWN      CLOUDY    49  49 100 W5        30.03S FOG
MONROE         CLOUDY    50  50 100 CALM      30.04S FOG
JANESVILLE     CLOUDY    50  46  87 SW3       30.03S FOG
$$

WIZ051-052-058>065-066-070>072-240800-
SOUTHEAST WISCONSIN

CITY           SKY/WX    TMP DP  RH WIND       PRES   REMARKS
MILWAUKEE      NOT AVBL
WAUKESHA       CLOUDY    48  46  93 W7        30.04S FOG
MILWAUKEE/TIMM CLOUDY    50  46  87 W9        30.03S FOG
RACINE         NOT AVBL
BURLINGTON     CLOUDY    48  47  97 CALM      30.04R
KENOSHA        NOT AVBL
FOND DU LAC    CLOUDY    49  46  90 W7        30.03R FOG
SHEBOYGAN      CLOUDY    50  48  93 W3        30.02S FOG
WEST BEND      CLOUDY    50  46  87 W6        30.03R FOG
JUNEAU         FOG       48  47  97 W5        30.05R VSB 1
$$

LSZ147-162-240800-
LAKE SUPERIOR

STATION/POSITION TIME  TEMP    WIND        PRES    WAVE
                       AIR SEA DIR/SP/G            HT/PER
                 (UTC) (F)     (DEG/KT/KT) (MB)    (FT/S)
W MID LAKE BUOY  0650   47 46  180/  8/ 10 1014.3S   1
DEVILS ISLAND    0700   48     180/  6/  8 1014.0F
PORT WING        0640   48     200/  4/  6 1013.9S
SAXON HARBOR     0600   47     190/  2/  6 1014.2S
$$

LMZ867-665-643>646-240800-
LAKE MICHIGAN

STATION/POSITION TIME  TEMP    WIND        PRES    WAVE
                       AIR SEA DIR/SP/G            HT/PER
                 (UTC) (F)     (DEG/KT/KT) (MB)    (FT/S)
CHAMBERS ISLAND  0600   49     220/  3/  8 1016.3S
N MID LAKE BUOY  0650   51 51  230/ 12/ 14 1016.3R   3/ 5
NORTHPORT PIER   0600   50      CALM  /  4 1015.9F
SISTER BAY       0628             CALM       N/A
KEWAUNEE LAKESHO 0700   50     260/  3/  3 1015.5R
SHEBOYGAN LAKESH 0700   51 51  240/  5/  5 1017.1S
PORT WASHINGTON  0640   51     190/  3/  4 1017.3S
ATWATER BUOY     0700   53     210/ 10/ 12 1017.8R
MILWAUKEE LAKESH 0700   52     230/  7/  9   N/A
S MID LAKE BUOY  0650   55 54  190/ 12/ 14 1017.4S   1/ 3
KENOSHA   LAKESH 0700   53     230/  5/  8 1016.9S
$$

TC  - TEMPERATURE IN CELSIUS
VSB - VISIBILITY IN STATUTE MILES
WCI - WIND CHILL INDEX
HX  - HEAT INDEX




USA.gov is the U.S. government's official web portal to all federal, state and local government web resources and services.